Terminal Aerodrome Forecast
Issued by NWS

Home | Current Version | Previous Version | Text Only | Print | Product List | Glossary Off
Versions: 1 2 3 4 5 6 7 8 9 10 11 12 13 14 15 16 17 18 19 20 21 22 23 24 25 26 27

000
FTUS43 KMPX 291700
TAFAXN
TAF
KAXN 291736Z 2918/3018 05010KT P6SM BKN008 OVC015
     FM292200 08009KT P6SM BKN025
     FM300000 09007KT P6SM SCT020
     FM300900 11009KT 4SM BR BKN004 OVC012
     FM301500 12014KT P6SM SCT008 OVC015=

USA.gov is the U.S. government's official web portal to all federal, state and local government web resources and services.